Please be sure to check the latest weather conditions by clicking the link and viewing our local weather information!

Check Weather

Welcome to Lakeway Airpark (3R9)


We’re a community airpark nestled within the town of Lakeway, Texas (17 miles northwest of downtown Austin).

Lakeway Airpark, Inc. was formed by Lakeway residents and interested parties to own and manage Lakeway Airpark (3R9).

The Airpark is a privately owned not for profit public use airport for residents and guests of Lakeway. No public funds are used and the airport is supported by fees and fuel sales at the airport.

Lakeway Airpark is an unmanned facility open for use from Sunrise to Sunset seven days a week. Takeoffs and landings are not permitted at night, between Sunset and Sunrise, by City Ordinance.

Quick Weather Info

Available data for KAUS from the past 2 hours

KAUS 132053Z 36008G15KT 10SM CLR 33/M02 A2997 RMK AO2 SLP134 FU E-SE T03331017 56022
KAUS 131953Z 01009KT 350V060 10SM FEW200 32/M01 A2998 RMK AO2 SLP141 FU E-SE T03221011